Location: Taukkyan
(23.1052°N, 94.0030°E)
Time: 23:04:51
(UTC+00:00)

Cosmos 1437 Rocket - Pass Details

Date: 06 July 2020
Orbit: 506 x 562 km, 81.2° (Epoch: 05 August)

Event Time Altitude Azimuth Distance (km) Brightness Sun altitude
Rises 20:55:25 0° 351° (N) 2,722 6.8 -25.6°
Reaches altitude 10° 20:57:36 10° 349° (N) 1,818 5.8 -25.3°
Enters shadow 21:00:11 38° 340° (NNW) 838 3.8 -24.8°
